COSMOS 2251 DEB

Satellite information

Favourite Embed

Satellite Type and Status

DEBRISIN ORBIT

Key statistics

Satellite COSMOS 2251 DEB at a glance.

Uptime

11709

Days in orbit

Revolutions

≈ 14.6

Per day

Orbit

LEO

Low Earth Orbit

Inclination

74.1

Latest

Satellite identification and parameters

Extended collection of information and parameters for COSMOS 2251 DEB.

Object identification

Identified? True

Debris? True

Object name: COSMOS 2251 DEB

International designator: 1993-036FR

Object number (NORAD): 33982

Object ID (CCSDS): 33982

Country: COMMONWEALTH OF INDEPENDENT STATES (CIS)

Current information (Y/N): Y

RCS size: SMALL

Orbital parameters

Period: 98.673 minutes

Inclination: 74.0711 deg

SMA: 7073.359 km

Apoapsis: 749.696 km

Periapsis: 640.752 km

RAAN: 303.2685 deg

Eccentricy: 0.007701

Argument of periapsis: 30.4567 deg

Mean anomaly: 25.2753 deg

Mean motion: 14.59365838 rev/day

Mean motion (dot): 0.00001083 rev/day2

B* drag term: 0.00022592 1/REarth

Two-line elements (TLE)

Creation date: July 6, 2025, 6:05 p.m.

Reference frame: TEME

Reference center: EARTH

Epoch: July 6, 2025, 9:18 a.m. UTC

TLE line 0: 0 COSMOS 2251 DEB

TLE line 1: 1 33982U 93036FR 25187.38765684 .00001083 00000-0 22592-3 0 9991

TLE line 2: 2 33982 74.0711 303.2685 0077010 30.4567 25.2753 14.59365838868349

Live tracking on map

Real-time ground track for satellite COSMOS 2251 DEB.

In-orbit conjunctions

A list of the most updated potential collisions computed for object COSMOS 2251 DEB.

Target Orbit TCA Probability of collision Miss distance Type
FENGYUN 1C DEB SSO 2024-11-15 16:33:19 0.0002821888 755.0 (m) DEBRIS
CZ-4 DEB SSO 2024-11-12 07:09:29 0.0002163716 445.0 (m) DEBRIS

Associated space launch

Military communications satellite. Destroyed in a collision with Iridium 33.

COSMOS 2251 DEB was lifted into orbit during the mission ‘Kosmos-3M | Strela-2M 51’, on board a Kosmos-3M space rocket.

The launch took place on June 16, 1993, 4:17 a.m. from 132/1 (132L).

For more information about the launch, click the button.

Launch to space Kosmos-3M | Strela-2M 51
Kosmos-3M | Strela-2M 51

Agency: N/A

Status: Launch Successful

Launch date: June 16, 1993, 4:17 a.m. UTC

Rocket: Kosmos-3M

Launch pad: 132/1 (132L)

Location: Plesetsk Cosmodrome, Russian Federation

...

Latest news about this satellite

There are no fresh news available about this satellite. Check back as we update our databases every day.


Newsletter sign-up

Weekly statistics, charts and insights to help you stay on top of the space industry.